Regional Weather Roundup
Issued by NWS

Home | Current Version | Previous Version | Text Only | Print | Product List | Glossary Off
Versions: 1 2 3 4 5 6 7 8 9 10 11 12 13 14 15 16 17 18 19 20 21 22 23 24 25 26 27 28 29 30 31 32 33 34 35 36 37 38 39 40 41 42 43 44 45 46 47 48 49 50

000
ASUS43 KFSD 281210
RWRSD

WEATHER ROUNDUP FOR SOUTH DAKOTA
NATIONAL WEATHER SERVICE SIOUX FALLS SD
600 AM CST SAT FEB 28 2015

NOTE: "FAIR" INDICATES FEW OR NO CLOUDS BELOW 12,000 FEET WITH NO
SIGNIFICANT WEATHER AND/OR OBSTRUCTIONS TO VISIBILITY.


SDZ001>005-009-010-012>017-281300-
NORTHWEST AND NORTH CENTRAL SOUTH DAKOTA

CITY           SKY/WX    TMP DP  RH WIND       PRES   REMARKS
BUFFALO          N/A      7   2  80 NW14      29.96R WCI -10
FAITH            N/A     12   5  73 S7        30.03R WCI   1
MOBRIDGE       MOCLDY    11   3  70 SE14      30.09S WCI  -5
$$

SDZ012>016-024>037-041>051-057-063-072>074-281300-
SOUTHWEST AND SOUTH CENTRAL SOUTH DAKOTA

CITY           SKY/WX    TMP DP  RH WIND       PRES   REMARKS
RAPID CTY ARPT CLEAR     15   8  73 N21       30.02R WCI  -2
PIERRE         CLEAR     11   3  70 S14       30.15R WCI  -5
CUSTER         CLEAR      3  -2  79 SW3       29.87R
ELLSWORTH AFB  CLEAR     16   8  70 N16       30.01R WCI   0
PHILIP         CLEAR     11   4  73 CALM      30.10R
PINE RIDGE     CLEAR     10   4  76 S12       30.03R WCI  -5
WINNER         FAIR      12   2  64 S17       30.18F WCI  -5
$$

SDZ004>011-016>023-039-040-281300-
NORTHEAST SOUTH DAKOTA

CITY           SKY/WX    TMP DP  RH WIND       PRES   REMARKS
ABERDEEN       PTCLDY     6  -1  73 S14       30.24S WCI -11
WATERTOWN      PTCLDY    -1  -6  79 S9        30.26S WCI -16
SISSETON         N/A     11  -1  58 SW17      30.27S WCI  -6
$$

SDZ017-020-022-023-036>040-048>070-281300-
SOUTHEAST SOUTH DAKOTA

CITY           SKY/WX    TMP DP  RH WIND       PRES   REMARKS
SIOUX FALLS    CLEAR      4  -3  73 S13       30.37S WCI -13
HURON          PTCLDY     6  -1  73 S14       30.28S WCI -11
CHAMBERLAIN    CLEAR     10   3  71 S10       30.22S WCI  -3
MITCHELL       CLEAR      8   1  73 S15       30.33S WCI  -9
YANKTON        FAIR       5   0  78 CALM      30.40R
$$

ABBREVIATIONS USED IN REMARKS
   TC - TEMPERATURE IN CELSIUS
  WCI - WIND CHILL INDEX
   HX - HEAT INDEX
  VSB - VISIBILITY




USA.gov is the U.S. government's official web portal to all federal, state and local government web resources and services.